User: anonymous   Login
Location: Barcelona
(41.3830°N, 2.1830°E)
Time: 23:47:00
(UTC+02:00)
Language:

Max Valier Satellite - Orbit

View from above orbital plane
View from above orbital plane
View from above satellite
View from above satellite

Ground track
Ground track

The orbit data is extracted from the following two-line orbital elements,

1 42778U 17036P   19288.38905093  .00000774  00000-0  36665-4 0  9998
2 42778  97.3415 343.3661 0012955 160.5174 199.6560 15.22181499128291
Epoch (UTC): 15 October 2019 09:20:14
Eccentricity: 0.0012955
inclination: 97.3415°
perigee height: 490 km
apogee height: 508 km
right ascension of ascending node: 343.3661°
argument of perigee: 160.5174°
revolutions per day: 15.22181499
mean anomaly at epoch: 199.6560°
orbit number at epoch: 12829

The dashed part of the orbit path shows where the satellite is in the earth's shadow,  

DLR